FFT5421 KMCO-KATL

Flight info

Callsign FFT5421
Flight time 1h 3m
Altitude 36000
Route JEEMY4 PAINN SHRKS LAIRI LARZZ JJEDI4
Aircraft A321/M-SDE3FGHIRWY/LB1

Departure

Time 2026-05-07 03:30
Airport Orlando International Airport (KMCO)

Arrival

Time 2026-05-07 04:33
Airport Hartsfield Jackson Atlanta International Airport (KATL)
Time Latitude Longitude Altitude Speed Heading
2026-05-07 03:27 28.44831 -81.31985 99 ft 14 kts 251°
2026-05-07 03:28 28.44826 -81.32095 99 ft 14 kts 271°
2026-05-07 03:28 28.44825 -81.32201 99 ft 9 kts 267°
2026-05-07 03:28 28.44784 -81.32230 97 ft 7 kts 180°
2026-05-07 03:28 28.44780 -81.32230 97 ft 0 kts 180°
2026-05-07 03:29 28.44763 -81.32230 99 ft 13 kts 179°
2026-05-07 03:29 28.44417 -81.32225 101 ft 83 kts 180°
2026-05-07 03:29 28.43647 -81.32218 100 ft 136 kts 180°
2026-05-07 03:30 28.42564 -81.32207 165 ft 169 kts 180°
2026-05-07 03:30 28.41427 -81.32233 861 ft 157 kts 182°
2026-05-07 03:30 28.40365 -81.32313 1527 ft 149 kts 186°
2026-05-07 03:30 28.39390 -81.32667 2091 ft 149 kts 201°
2026-05-07 03:31 28.38415 -81.33132 2533 ft 155 kts 201°
2026-05-07 03:31 28.37409 -81.33596 3003 ft 158 kts 201°
2026-05-07 03:31 28.36352 -81.34069 3358 ft 171 kts 201°
2026-05-07 03:31 28.35187 -81.34683 3473 ft 201 kts 216°
2026-05-07 03:32 28.34270 -81.35960 3784 ft 222 kts 246°
2026-05-07 03:32 28.34020 -81.37766 4080 ft 245 kts 276°
2026-05-07 03:32 28.34677 -81.39574 4653 ft 255 kts 308°
2026-05-07 03:32 28.36063 -81.40781 5355 ft 257 kts 336°
2026-05-07 03:33 28.37797 -81.41289 6037 ft 259 kts 357°
2026-05-07 03:33 28.39602 -81.41340 6680 ft 261 kts
2026-05-07 03:33 28.41438 -81.41320 7256 ft 266 kts
2026-05-07 03:33 28.43314 -81.41290 7849 ft 271 kts
2026-05-07 03:34 28.45222 -81.41281 8393 ft 278 kts 360°
2026-05-07 03:34 28.47186 -81.41285 8929 ft 284 kts 359°
2026-05-07 03:34 28.49184 -81.41291 9497 ft 291 kts 359°
2026-05-07 03:34 28.51224 -81.41296 10050 ft 296 kts 359°
2026-05-07 03:35 28.53306 -81.41299 10551 ft 301 kts 359°
2026-05-07 03:35 28.55419 -81.41299 11080 ft 307 kts 359°
2026-05-07 03:35 28.57573 -81.41296 11594 ft 312 kts 359°
2026-05-07 03:35 28.59758 -81.41294 12126 ft 317 kts 359°
2026-05-07 03:36 28.61977 -81.41295 12667 ft 321 kts 358°
2026-05-07 03:36 28.64231 -81.41298 13214 ft 326 kts 358°
2026-05-07 03:36 28.66508 -81.41300 13775 ft 330 kts 358°
2026-05-07 03:36 28.68818 -81.41300 14296 ft 334 kts 358°
2026-05-07 03:37 28.71150 -81.41298 14792 ft 337 kts 357°
2026-05-07 03:37 28.73480 -81.41298 15301 ft 340 kts 357°
2026-05-07 03:37 28.75858 -81.41300 15818 ft 343 kts 357°
2026-05-07 03:37 28.78258 -81.41301 16355 ft 346 kts 357°
2026-05-07 03:38 28.80673 -81.41299 16887 ft 348 kts 356°
2026-05-07 03:38 28.83101 -81.41297 17439 ft 350 kts 356°
2026-05-07 03:38 28.85545 -81.41297 17998 ft 352 kts 356°
2026-05-07 03:38 28.87994 -81.41298 18541 ft 353 kts 356°
2026-05-07 03:39 28.90456 -81.41298 19041 ft 353 kts 355°
2026-05-07 03:39 28.92919 -81.41295 19544 ft 354 kts 355°
2026-05-07 03:39 28.95384 -81.41316 20056 ft 352 kts 352°
2026-05-07 03:39 28.97818 -81.41567 20582 ft 351 kts 349°
2026-05-07 03:40 29.00267 -81.41842 20937 ft 357 kts 348°
2026-05-07 03:40 29.02772 -81.42127 21208 ft 365 kts 348°
2026-05-07 03:40 29.05327 -81.42415 21485 ft 373 kts 348°
2026-05-07 03:40 29.07940 -81.42706 21755 ft 380 kts 348°
2026-05-07 03:41 29.10590 -81.42999 22023 ft 386 kts 348°
2026-05-07 03:41 29.13256 -81.43273 22304 ft 392 kts 349°
2026-05-07 03:41 29.16001 -81.43534 22590 ft 398 kts 349°
2026-05-07 03:41 29.18778 -81.43787 22921 ft 402 kts 349°
2026-05-07 03:42 29.20666 -81.43958 23181 ft 403 kts 349°
2026-05-07 03:42 29.24381 -81.44299 23691 ft 406 kts 348°
2026-05-07 03:42 29.26284 -81.44475 23916 ft 407 kts 348°
2026-05-07 03:42 29.29103 -81.44736 24258 ft 408 kts 348°
2026-05-07 03:43 29.31914 -81.44999 24586 ft 410 kts 348°
2026-05-07 03:43 29.34796 -81.45273 24933 ft 412 kts 348°
2026-05-07 03:43 29.37657 -81.45548 25274 ft 413 kts 348°
2026-05-07 03:43 29.40528 -81.45826 25618 ft 415 kts 348°
2026-05-07 03:44 29.43407 -81.46103 25973 ft 416 kts 348°
2026-05-07 03:44 29.46294 -81.46378 26327 ft 417 kts 347°
2026-05-07 03:44 29.49190 -81.46653 26681 ft 418 kts 347°
2026-05-07 03:44 29.52090 -81.46931 27046 ft 419 kts 347°
2026-05-07 03:45 29.54994 -81.47210 27411 ft 419 kts 347°
2026-05-07 03:45 29.57905 -81.47488 27811 ft 420 kts 347°
2026-05-07 03:45 29.60821 -81.47761 28192 ft 420 kts 347°
2026-05-07 03:45 29.63733 -81.48023 28576 ft 420 kts 347°
2026-05-07 03:46 29.66648 -81.48278 28965 ft 420 kts 347°
2026-05-07 03:46 29.69558 -81.48534 29360 ft 419 kts 347°
2026-05-07 03:46 29.72465 -81.48796 29760 ft 418 kts 346°
2026-05-07 03:46 29.75367 -81.49060 30170 ft 417 kts 346°
2026-05-07 03:47 29.78253 -81.49326 30508 ft 416 kts 346°
2026-05-07 03:47 29.81102 -81.49585 30851 ft 415 kts 346°
2026-05-07 03:47 29.83973 -81.49844 31219 ft 414 kts 346°
2026-05-07 03:47 29.86841 -81.50104 31581 ft 412 kts 346°
2026-05-07 03:48 29.89641 -81.50578 31942 ft 402 kts 338°
2026-05-07 03:48 29.92303 -81.51461 32303 ft 395 kts 334°
2026-05-07 03:48 29.94922 -81.52402 32666 ft 393 kts 335°
2026-05-07 03:48 29.97529 -81.53337 33053 ft 391 kts 335°
2026-05-07 03:49 30.00119 -81.54263 33436 ft 389 kts 335°
2026-05-07 03:49 30.02700 -81.55185 33820 ft 386 kts 335°
2026-05-07 03:49 30.05259 -81.56099 34196 ft 383 kts 335°
2026-05-07 03:49 30.07791 -81.57004 34528 ft 380 kts 335°
2026-05-07 03:50 30.10312 -81.57906 34826 ft 378 kts 335°
2026-05-07 03:50 30.12828 -81.58809 35059 ft 378 kts 335°
2026-05-07 03:50 30.15333 -81.59710 35326 ft 377 kts 334°
2026-05-07 03:50 30.17838 -81.60609 35563 ft 376 kts 334°
2026-05-07 03:51 30.20336 -81.61505 35803 ft 375 kts 334°
2026-05-07 03:51 30.22832 -81.62400 35997 ft 376 kts 334°
2026-05-07 03:51 30.25338 -81.63302 36075 ft 379 kts 334°
2026-05-07 03:52 30.30437 -81.65147 36086 ft 390 kts 334°
2026-05-07 03:52 30.35710 -81.67049 36066 ft 401 kts 335°
2026-05-07 03:53 30.41118 -81.69003 36063 ft 413 kts 335°
2026-05-07 03:53 30.46678 -81.71010 36064 ft 424 kts 335°
2026-05-07 03:54 30.52389 -81.73062 36065 ft 434 kts 335°
2026-05-07 03:54 30.58157 -81.75136 36063 ft 434 kts 335°
2026-05-07 03:55 30.63794 -81.77484 36058 ft 425 kts 327°
2026-05-07 03:55 30.69095 -81.80556 36056 ft 425 kts 327°
2026-05-07 03:56 30.74365 -81.83603 36055 ft 426 kts 327°
2026-05-07 03:56 30.79680 -81.86676 36047 ft 427 kts 327°
2026-05-07 03:57 30.85006 -81.89763 36036 ft 427 kts 327°
2026-05-07 03:57 30.90326 -81.92855 36037 ft 428 kts 327°
2026-05-07 03:58 30.95654 -81.95956 36035 ft 428 kts 327°
2026-05-07 03:58 31.00978 -81.99050 36053 ft 428 kts 327°
2026-05-07 03:59 31.06311 -82.02151 36046 ft 428 kts 327°
2026-05-07 03:59 31.11641 -82.05256 36045 ft 428 kts 327°
2026-05-07 04:00 31.16961 -82.08364 36042 ft 428 kts 327°
2026-05-07 04:00 31.22281 -82.11480 36047 ft 428 kts 327°
2026-05-07 04:01 31.27567 -82.14577 36049 ft 427 kts 327°
2026-05-07 04:01 31.32880 -82.17693 36061 ft 428 kts 326°
2026-05-07 04:02 31.38210 -82.20816 36052 ft 428 kts 326°
2026-05-07 04:02 31.43537 -82.23944 36048 ft 429 kts 326°
2026-05-07 04:03 31.48872 -82.27088 36039 ft 429 kts 326°
2026-05-07 04:03 31.54201 -82.30225 36032 ft 429 kts 326°
2026-05-07 04:04 31.59535 -82.33368 36036 ft 429 kts 326°
2026-05-07 04:04 31.64866 -82.36517 36027 ft 429 kts 326°
2026-05-07 04:05 31.70205 -82.39680 36030 ft 430 kts 326°
2026-05-07 04:05 31.75544 -82.42841 36022 ft 430 kts 326°
2026-05-07 04:06 31.80893 -82.46005 36020 ft 430 kts 326°
2026-05-07 04:06 31.86236 -82.49172 36048 ft 430 kts 326°
2026-05-07 04:07 31.91578 -82.52359 36044 ft 431 kts 326°
2026-05-07 04:07 31.96806 -82.55752 36040 ft 422 kts 316°
2026-05-07 04:08 32.01244 -82.60199 36039 ft 418 kts 313°
2026-05-07 04:08 32.05651 -82.64694 36027 ft 419 kts 313°
2026-05-07 04:09 32.10068 -82.69184 36030 ft 419 kts 313°
2026-05-07 04:09 32.14475 -82.73685 36058 ft 419 kts 313°
2026-05-07 04:10 32.18877 -82.78193 35950 ft 421 kts 313°
2026-05-07 04:10 32.21085 -82.80454 35454 ft 419 kts 312°
2026-05-07 04:10 32.23262 -82.82686 34951 ft 420 kts 313°
2026-05-07 04:10 32.25469 -82.84952 34318 ft 422 kts 313°
2026-05-07 04:11 32.27688 -82.87235 33654 ft 424 kts 313°
2026-05-07 04:11 32.29925 -82.89536 32962 ft 427 kts 313°
2026-05-07 04:11 32.32169 -82.91840 32297 ft 428 kts 313°
2026-05-07 04:11 32.34423 -82.94155 31627 ft 430 kts 314°
2026-05-07 04:12 32.36680 -82.96475 30983 ft 431 kts 314°
2026-05-07 04:12 32.38948 -82.98811 30362 ft 432 kts 314°
2026-05-07 04:12 32.41221 -83.01154 29681 ft 433 kts 314°
2026-05-07 04:12 32.43497 -83.03497 28996 ft 435 kts 314°
2026-05-07 04:13 32.45789 -83.05854 28283 ft 437 kts 314°
2026-05-07 04:13 32.48092 -83.08221 27592 ft 440 kts 314°
2026-05-07 04:13 32.50407 -83.10602 26940 ft 443 kts 314°
2026-05-07 04:13 32.52742 -83.13006 26277 ft 446 kts 314°
2026-05-07 04:14 32.55093 -83.15430 25632 ft 450 kts 315°
2026-05-07 04:14 32.57459 -83.17877 25014 ft 452 kts 315°
2026-05-07 04:14 32.59834 -83.20338 24387 ft 455 kts 315°
2026-05-07 04:14 32.62220 -83.22817 23783 ft 458 kts 315°
2026-05-07 04:15 32.64625 -83.25316 23101 ft 460 kts 315°
2026-05-07 04:15 32.67029 -83.27814 22397 ft 458 kts 315°
2026-05-07 04:15 32.69412 -83.30289 21711 ft 454 kts 314°
2026-05-07 04:15 32.71779 -83.32748 21052 ft 449 kts 314°
2026-05-07 04:16 32.74118 -83.35181 20393 ft 445 kts 315°
2026-05-07 04:16 32.76436 -83.37593 19758 ft 441 kts 314°
2026-05-07 04:16 32.78730 -83.39982 19130 ft 437 kts 314°
2026-05-07 04:16 32.80981 -83.42330 18521 ft 433 kts 314°
2026-05-07 04:17 32.83234 -83.44681 17893 ft 429 kts 314°
2026-05-07 04:17 32.85467 -83.47014 17222 ft 426 kts 314°
2026-05-07 04:17 32.87683 -83.49333 16689 ft 424 kts 313°
2026-05-07 04:17 32.89891 -83.51642 16142 ft 422 kts 313°
2026-05-07 04:18 32.92096 -83.53949 15615 ft 420 kts 313°
2026-05-07 04:18 32.94291 -83.56246 15087 ft 421 kts 313°
2026-05-07 04:18 32.96487 -83.58549 14572 ft 420 kts 312°
2026-05-07 04:18 32.98678 -83.60846 14061 ft 419 kts 312°
2026-05-07 04:19 33.00843 -83.63113 13601 ft 411 kts 313°
2026-05-07 04:19 33.02967 -83.65326 13209 ft 398 kts 313°
2026-05-07 04:19 33.05017 -83.67464 12825 ft 385 kts 313°
2026-05-07 04:19 33.07004 -83.69545 12449 ft 376 kts 312°
2026-05-07 04:20 33.08947 -83.71588 12182 ft 371 kts 312°
2026-05-07 04:20 33.10876 -83.73628 11926 ft 369 kts 312°
2026-05-07 04:20 33.12784 -83.75653 11680 ft 368 kts 312°
2026-05-07 04:21 33.16583 -83.79672 11198 ft 365 kts 312°
2026-05-07 04:21 33.18483 -83.81678 10962 ft 365 kts 312°
2026-05-07 04:21 33.20348 -83.83708 10725 ft 362 kts 310°
2026-05-07 04:21 33.22154 -83.85808 10489 ft 360 kts 309°
2026-05-07 04:22 33.23914 -83.87929 10263 ft 359 kts 308°
2026-05-07 04:22 33.25656 -83.90052 10028 ft 357 kts 308°
2026-05-07 04:22 33.27391 -83.92165 9797 ft 356 kts 308°
2026-05-07 04:22 33.29134 -83.94280 9538 ft 357 kts 308°
2026-05-07 04:23 33.30881 -83.96386 9196 ft 356 kts 308°
2026-05-07 04:23 33.32625 -83.98475 8848 ft 355 kts 308°
2026-05-07 04:23 33.34367 -84.00555 8508 ft 354 kts 309°
2026-05-07 04:23 33.36375 -84.02299 8165 ft 366 kts 329°
2026-05-07 04:24 33.38897 -84.02970 7831 ft 379 kts 350°
2026-05-07 04:24 33.41512 -84.03075 7537 ft 369 kts 352°
2026-05-07 04:24 33.43995 -84.03355 7279 ft 349 kts 341°
2026-05-07 04:24 33.46310 -84.04012 7043 ft 336 kts 339°
2026-05-07 04:25 33.48551 -84.04655 6805 ft 326 kts 339°
2026-05-07 04:25 33.50731 -84.05264 6571 ft 316 kts 339°
2026-05-07 04:25 33.52844 -84.05855 6335 ft 308 kts 339°
2026-05-07 04:25 33.54810 -84.06672 6100 ft 290 kts 327°
2026-05-07 04:26 33.56573 -84.07764 5852 ft 281 kts 324°
2026-05-07 04:26 33.58267 -84.08867 5603 ft 274 kts 324°
2026-05-07 04:26 33.59927 -84.09939 5358 ft 267 kts 324°
2026-05-07 04:26 33.61550 -84.10962 5118 ft 260 kts 324°
2026-05-07 04:27 33.62876 -84.12285 4872 ft 238 kts 293°
2026-05-07 04:27 33.63243 -84.14090 4633 ft 217 kts 263°
2026-05-07 04:27 33.63181 -84.15860 4385 ft 214 kts 264°
2026-05-07 04:27 33.63160 -84.17634 4150 ft 211 kts 264°
2026-05-07 04:28 33.63161 -84.19362 4022 ft 202 kts 264°
2026-05-07 04:28 33.63166 -84.20982 4021 ft 187 kts 264°
2026-05-07 04:28 33.63169 -84.22485 3969 ft 174 kts 263°
2026-05-07 04:28 33.63170 -84.23908 3815 ft 168 kts 262°
2026-05-07 04:29 33.63171 -84.24837 3694 ft 167 kts 262°
2026-05-07 04:29 33.63172 -84.26225 3502 ft 165 kts 262°
2026-05-07 04:29 33.63175 -84.27568 3312 ft 157 kts 261°
2026-05-07 04:29 33.63177 -84.28855 3095 ft 150 kts 261°
2026-05-07 04:30 33.63178 -84.30107 2907 ft 146 kts 260°
2026-05-07 04:30 33.63178 -84.31321 2720 ft 145 kts 261°
2026-05-07 04:30 33.63178 -84.32512 2548 ft 145 kts 261°
2026-05-07 04:30 33.63179 -84.33723 2348 ft 146 kts 260°
2026-05-07 04:31 33.63179 -84.34946 2175 ft 146 kts 261°
2026-05-07 04:31 33.63183 -84.36161 1973 ft 146 kts 261°
2026-05-07 04:31 33.63201 -84.37372 1795 ft 145 kts 261°
2026-05-07 04:31 33.63199 -84.38567 1574 ft 145 kts 263°
2026-05-07 04:32 33.63184 -84.39798 1388 ft 148 kts 266°
2026-05-07 04:32 33.63190 -84.41029 1226 ft 147 kts 266°
2026-05-07 04:32 33.63187 -84.42246 1042 ft 140 kts 267°
2026-05-07 04:32 33.63182 -84.43240 1038 ft 88 kts 270°
2026-05-07 04:33 33.63180 -84.43781 1035 ft 52 kts 269°
2026-05-07 04:33 33.63218 -84.44140 1034 ft 37 kts 295°
2026-05-07 04:33 33.63334 -84.44257 1035 ft 15 kts 23°
2026-05-07 04:33 33.63397 -84.44201 1035 ft 15 kts 17°
2026-05-07 04:34 33.63523 -84.44195 1036 ft 16 kts
2026-05-07 04:34 33.63621 -84.44195 1036 ft 13 kts
2026-05-07 04:34 33.63664 -84.44119 1036 ft 14 kts 87°
2026-05-07 04:34 33.63664 -84.43997 1036 ft 14 kts 90°
2026-05-07 04:35 33.63665 -84.43879 1036 ft 14 kts 90°
2026-05-07 04:35 33.63665 -84.43767 1036 ft 13 kts 90°
2026-05-07 04:35 33.63665 -84.43655 1036 ft 15 kts 90°
2026-05-07 04:35 33.63665 -84.43505 1035 ft 20 kts 90°
2026-05-07 04:36 33.63664 -84.43345 1035 ft 18 kts 90°
2026-05-07 04:36 33.63665 -84.43210 1035 ft 15 kts 90°
2026-05-07 04:36 33.63679 -84.43090 1035 ft 14 kts 55°
2026-05-07 04:36 33.63764 -84.43066 1035 ft 12 kts
2026-05-07 04:37 33.63843 -84.43066 1035 ft 11 kts
2026-05-07 04:37 33.63917 -84.43066 1035 ft 10 kts 360°
2026-05-07 04:37 33.63979 -84.43066 1035 ft 8 kts 359°
2026-05-07 04:37 33.64032 -84.43064 1035 ft 7 kts 11°
2026-05-07 04:38 33.64062 -84.43031 1035 ft 5 kts 78°
2026-05-07 04:38 33.64053 -84.42996 1035 ft 4 kts 115°
2026-05-07 04:38 33.64047 -84.42980 1035 ft 0 kts 116°